Flag for France Weather past 2 weeks in Reims, France

Now
68 °F

Broken clouds.


Feels Like: 68 °F
Forecast: 55 / 73 °F
Wind: 7 mph from Southwest

Location: Chalons-Vatry

Current Time: Jul 28, 2014 at 3:11:08 PM

Latest Report: Jul 28, 2014 at 2:30 PM


Visibility: N/A

Pressure: 29.89 "Hg

Humidity: 78%

Dew point: 61 °F

Location of ReimsLocation

Historic Weather in Reims — Graph

°F

Reims temperature yesterday

Maximum temperature yesterday: 81 °F (at 2:00 PM)
Minimum temperature yesterday: 57 °F (at 3:30 AM)
Average temperature yesterday: 68 °F

Past Weeks' High & Low Weather Summary

 TemperatureHumidityPressure
High95 °F (Jul 18, 4:00 PM)100% (Jul 20, 11:30 PM)30.18 "Hg (Jul 20, 11:30 PM)
Low54 °F (Jul 15, 4:30 AM)27% (Jul 24, 4:00 PM)29.80 "Hg (Jul 19, 7:30 AM)
Average70 °F70%29.98 "Hg
* Reported Jul 13 2:00 PM — Jul 28 2:00 PM, Reims, Weather by CustomWeather, © 2014

Note: Actual official high and low records may vary slightly from our data, if they occured in-between our weather recording intervals... More about our weather records

Advertising

Reims weather history for previous 24 hours

 ConditionsComfort  
Time TempWeatherWind HumidityBarometerVisibility
2:00 PM
Jul 28
68 °FBroken clouds.6 mph78%29.89 "HgN/A
1:30 PM66 °FScattered clouds.6 mph83%29.92 "HgN/A
1:00 PM66 °FScattered clouds.6 mph88%29.92 "HgN/A
12:30 PM64 °FBroken clouds.8 mph88%29.92 "HgN/A
12:00 PM64 °FBroken clouds.9 mph88%29.92 "HgN/A
11:30 AM64 °FPartly sunny.8 mph88%29.92 "HgN/A
11:00 AM63 °FMostly cloudy.8 mph94%29.92 "HgN/A
10:30 AM63 °FDrizzle. Partly sunny.5 mph94%29.92 "HgN/A
10:00 AM63 °FDrizzle. Mostly cloudy.6 mph94%29.92 "HgN/A
9:30 AM63 °FLight rain. Partly sunny.5 mph94%29.92 "HgN/A
9:00 AM63 °FLight rain. Partly sunny.2 mph94%29.92 "HgN/A
8:30 AM63 °FMostly cloudy.2 mph94%29.92 "HgN/A
8:00 AM63 °FLight rain. Partly cloudy.2 mph94%29.92 "Hg6 mi
7:30 AM61 °FRain. Fog.2 mph100%29.92 "Hg3 mi
7:00 AM61 °FPassing clouds.5 mph100%29.92 "HgN/A
6:30 AM61 °FLight rain. Passing clouds.9 mph100%29.92 "HgN/A
6:00 AM63 °FThundershowers. Fog.14 mph94%29.95 "Hg1 mi
5:30 AM63 °FLight rain. Passing clouds.10 mph94%29.89 "HgN/A
5:00 AM63 °FLight rain. Partly cloudy.6 mph94%29.92 "Hg5 mi
4:30 AM63 °FPassing clouds.6 mph94%29.92 "HgN/A
4:00 AM63 °FMild.6 mph94%29.92 "HgN/A
3:30 AM63 °FMild.8 mph94%29.92 "HgN/A
3:00 AM63 °FMild.10 mph94%29.95 "Hg5 mi
2:30 AM63 °FRain. Fog.12 mph94%29.98 "Hg2 mi
2:00 AM64 °FMostly cloudy.15 mph88%29.98 "HgN/A
1:30 AM66 °FMild.13 mph83%29.98 "HgN/A
1:00 AM68 °FMild.7 mph73%29.98 "HgN/A
12:30 AM68 °FMild.7 mph73%29.98 "HgN/A
12:00 AM66 °FClear.7 mph78%29.98 "HgN/A
11:30 PM
Jul 27
66 °FClear.6 mph78%30.01 "HgN/A
11:00 PM66 °FMild.7 mph83%30.01 "HgN/A
10:30 PM70 °FClear.3 mph69%30.01 "HgN/A
10:00 PM70 °FClear.2 mph73%29.98 "HgN/A
9:30 PM70 °FClear.3 mph73%29.98 "HgN/A
9:00 PM70 °FClear.3 mph78%29.98 "HgN/A
8:30 PM70 °FClear.6 mph78%29.98 "HgN/A
8:00 PM72 °FClear.8 mph69%29.98 "HgN/A
7:30 PM75 °FClear.9 mph57%29.98 "HgN/A
7:00 PM75 °FClear.12 mph57%30.01 "HgN/A
6:30 PM79 °FClear.13 mph54%29.98 "HgN/A
6:00 PM79 °FClear.6 mph51%29.98 "HgN/A
5:30 PM81 °FClear.9 mph45%30.01 "HgN/A
5:00 PM79 °FClear.9 mph45%30.01 "HgN/A
4:30 PM81 °FClear.8 mph45%30.01 "HgN/A
4:00 PM81 °FClear.8 mph42%30.01 "HgN/A
3:30 PM81 °FClear.9 mph45%30.01 "HgN/A
3:00 PM79 °FClear.8 mph48%30.04 "HgN/A
Weather by CustomWeather, © 2014

See weather overviewHow to use our weather pages